星链-5090 (STARLINK-5090 )

导读

STARLINK-5090是美国SpaceX公司于2023年3月29日发射的星链系列低轨卫星,归入星链互联网星座。星链星座通过海量近地轨道小卫星组网,为全球提供高速低延迟宽带互联网服务,该卫星配备激光链路实现星间通信,摆脱对地面网关的过度依赖,优化偏远、海洋区域通信覆盖,提升网络传输效率。作为星链规模化部署的组成单元,它进一步完善星座全球覆盖能力,支撑星链“全天候全球联网”的服务目标。

Basic Information
目录编号:
56137
目录名称:
STARLINK-5090
国际标识:
2023-046AX
轨道中心:
EARTH
卫星名称:
星链-5090
卫星全名:
星链-5090 (STARLINK-5090 )
卫星状态:
在轨 (已飞行1262 天)
发射日期:
2023-03-29 UTC
国别 :
美国 (US)
星等 :
--
This satellite is enrolled in the Space Conjunction Data Service (SCDS) and the current flight risk assessment level is: No High Risk
Orbit Information
数据来源 国际轨道数据 AOE轨道数据
星历时间 2026-09-11T12:59:29+0800
15小时前
查看轨道信息
2026-09-10T00:00:00+0800
2天前
查看轨道信息
半长轴 6861.241km 6861.2km
偏心率 0.00012 0.0001674
轨道倾角 43.001° 42.997°
近地点辐角 265.429° 212.561°
升交点赤经 179.198° 187.907°
平近点角 94.642° 301.608°
近地点 482.28km 481.914km
远地点 483.928km 484.212km
周期 94.268分钟 94.267分钟
每日圈数 15.275619 15.275754
Detailed Information
固有亮度:
5
最大亮度:
2.5
卫星平台:
Starlink v1.5
覆盖范围:
全球
运营商:
太空探索技术公司
运营商所在国:
美国
制造商(研发单位):
太空探索技术公司
制造商所在国:
美国
使用方式:
暂无
Satellite Introduction
星链(Starlink)计划是由太空探索技术公司(SpaceX)提出的一个巨型低轨卫星互联网星座项目,计划在2019年至2024年间在太空搭建由约1.2万颗卫星组成的“星链”网络,其中1584颗将部署在地球上空550千米处的近地轨道,并从2020年开始工作。该卫星仍在工作。
2D Orbit Map
3D Orbit Map
Orbit Altitude Analysis Chart
Orbit Inclination Analysis Chart
Orbit Comprehensive Analysis Chart
View Comprehensive Chart
Conjunction Data List
Event ID Objects TCA Miss Dist (km) Collision Risk Probability Collision Risk Index (CRI) Action
CDM_260912-201805-613706-401821
2026-09-12T
20:18:51+0000
0.266 km
中距离
5.079334E-4 高风险 0.89
CDM_260912-202605-613705-840421
2026-09-12T
20:26:57+0000
0.422 km
远距离
2.029734E-4 高风险 0.81
CDM_260912-185205-613705-840421
2026-09-12T
18:52:48+0000
0.682 km
远距离
5.941346E-5 中风险 0.7
CDM_260912-122905-613706-365521
2026-09-12T
12:29:18+0000
0.784 km
远距离
4.585592E-5 中风险 0.68
CDM_260914-030305-613705-840421
2026-09-14T
03:03:00+0000
0.755 km
远距离
4.33665E-5 中风险 0.68
CDM_260912-171105-613705-753021
2026-09-12T
17:11:06+0000
0.917 km
远距离
2.754456E-5 中风险 0.64
CDM_260913-080505-613705-753021
2026-09-13T
08:05:33+0000
1.035 km
极远距离
1.817321E-5 中风险 0.6
CDM_260913-155505-613706-401821
2026-09-13T
15:55:47+0000
1.039 km
极远距离
1.80871E-5 中风险 0.6
CDM_260914-012805-613705-840421
2026-09-14T
01:28:51+0000
1.050 km
极远距离
1.436005E-5 中风险 0.58
CDM_260912-220105-613705-840421
2026-09-12T
22:01:07+0000
1.164 km
极远距离
1.002933E-5 中风险 0.55
Miss Distance Evolution Trend with All Objects
Collision Probability Evolution Trend with All Objects